Back to catalog

STARLINK-31069

AliveCommunicationsVLEO
NORAD 58607·PAYLOAD·🇺🇸 United States

Launched Dec 19, 2023 from Cape Canaveral Space Force Station

Loading…

Next Passes (next 24 hours)

TLE

FreshSource: CelesTrak SupGP

Epoch: Sep 14, 2026, 22:41 UTC

1 58607C 23200U   26257.94562500 -.00046285  00000+0 -16763-2 0  2574
2 58607  42.9999 180.0458 0001466 266.0991 139.1761 15.27604670    13

Track STARLINK-31069 in real time with AllMySat

Download on the App Store